FENGYUN 1C DEB

Satellite information

Favourite Embed

Satellite Type and Status

DEBRISIN ORBIT

Key statistics

Satellite FENGYUN 1C DEB at a glance.

Uptime

9615

Days in orbit

Revolutions

≈ 14.1

Per day

Orbit

SSO

Sun Synchronous Orbit

Inclination

99.2

Latest

Satellite identification and parameters

Extended collection of information and parameters for FENGYUN 1C DEB.

Object identification

Identified? True

Debris? True

Object name: FENGYUN 1C DEB

International designator: 1999-025BZP

Object number (NORAD): 31609

Object ID (CCSDS): 31609

Country: PEOPLES REPUBLIC OF CHINA (PRC)

Current information (Y/N): Y

RCS size: SMALL

Orbital parameters

Period: 101.801 minutes

Inclination: 99.2279 deg

SMA: 7222.066 km

Apoapsis: 913.473 km

Periapsis: 774.388 km

RAAN: 248.2559 deg

Eccentricy: 0.0096292

Argument of periapsis: 306.4635 deg

Mean anomaly: 233.4203 deg

Mean motion: 14.14524942 rev/day

Mean motion (dot): 0.00002179 rev/day2

B* drag term: 0.0011099 1/REarth

Two-line elements (TLE)

Creation date: Aug. 16, 2025, 10:46 p.m.

Reference frame: TEME

Reference center: EARTH

Epoch: Aug. 11, 2025, 8:17 p.m. UTC

TLE line 0: 0 FENGYUN 1C DEB

TLE line 1: 1 31609U 99025BZP 25223.84573623 .00002179 00000-0 11099-2 0 9997

TLE line 2: 2 31609 99.2279 248.2559 0096292 306.4635 233.4203 14.14524942930497

Live tracking on map

Real-time ground track for satellite FENGYUN 1C DEB.

In-orbit conjunctions

A list of the most updated potential collisions computed for object FENGYUN 1C DEB.

Target Orbit TCA Probability of collision Miss distance Type
METEOR 1-26 LEO 2024-10-05 18:39:21 0.0001073556 618.0 (m) PAYLOAD

Associated space launch

Chinese polar orbiting meteorological satellite

FENGYUN 1C DEB was lifted into orbit during the mission ‘Long March 4B | Feng Yun 1C’, on board a Long March 4B space rocket.

The launch took place on May 10, 1999, 1:33 a.m. from Launch Complex 7.

For more information about the launch, click the button.

Launch to space Long March 4B | Feng Yun 1C
Long March 4B | Feng Yun 1C

Agency: N/A

Status: Launch Successful

Launch date: May 10, 1999, 1:33 a.m. UTC

Rocket: Long March 4B

Launch pad: Launch Complex 7

Location: Taiyuan Satellite Launch Center, People's Republic of China

...

Latest news about this satellite

There are no fresh news available about this satellite. Check back as we update our databases every day.


Newsletter sign-up

Weekly statistics, charts and insights to help you stay on top of the space industry.